This is the latest recevied weather packets stored in our database for station/object AB1AU. If no packets are shown the sender has not sent any weather packets the latest 10 day(s).
| Time | Temp. | Humidity | Pressure | Rain* | Wind** | Luminosity | Snow |
|---|---|---|---|---|---|---|---|
| 1777497548 | 11.67° C | 72% | 1015.9 hPa | 0 mm | - | 81 W/m² | - |
| 1777497244 | 11.67° C | 72% | 1016.1 hPa | 0 mm | - | 126 W/m² | - |
| 1777496941 | 11.67° C | 71% | 1016.1 hPa | 0 mm | - | 130 W/m² | - |
| 1777496638 | 11.67° C | 71% | 1016.1 hPa | 0 mm | - | 97 W/m² | - |
| 1777496335 | 12.22° C | 71% | 1016.3 hPa | 0 mm | - | 106 W/m² | - |
| 1777496030 | 11.67° C | 72% | 1016.4 hPa | 0 mm | - | 94 W/m² | - |
| 1777495727 | 12.22° C | 70% | 1016.2 hPa | 0 mm | - | 96 W/m² | - |
| 1777495423 | 12.22° C | 70% | 1016.5 hPa | 0 mm | - | 108 W/m² | - |
| 1777495119 | 12.22° C | 70% | 1016.3 hPa | 0 mm | - | 112 W/m² | - |
| 1777494817 | 12.78° C | 69% | 1016.2 hPa | 0 mm | - | 114 W/m² | - |
| 1777494514 | 12.78° C | 69% | 1016.3 hPa | 0 mm | - | 134 W/m² | - |
| 1777494211 | 12.78° C | 69% | 1016.3 hPa | 0 mm | - | 150 W/m² | - |
| 1777493908 | 12.78° C | 69% | 1016.3 hPa | 0 mm | - | 160 W/m² | - |
| 1777493606 | 12.78° C | 69% | 1016.5 hPa | 0 mm | - | 133 W/m² | - |
| 1777493303 | 12.78° C | 69% | 1016.5 hPa | 0 mm | - | 142 W/m² | - |
| 1777493000 | 13.33° C | 68% | 1016.3 hPa | 0 mm | - | 142 W/m² | - |
| 1777492696 | 12.78° C | 68% | 1016.5 hPa | 0 mm | - | 188 W/m² | - |
| 1777492396 | 12.78° C | 68% | 1016.4 hPa | 0 mm | - | 146 W/m² | - |
| 1777492094 | 13.33° C | 68% | 1016.4 hPa | 0 mm | - | 134 W/m² | - |
| 1777491791 | 13.33° C | 67% | 1016.4 hPa | 0 mm | - | 136 W/m² | - |
| 1777491487 | 13.33° C | 66% | 1016.7 hPa | 0 mm | - | 137 W/m² | - |
| 1777491185 | 13.33° C | 67% | 1016.7 hPa | 0 mm | - | 134 W/m² | - |
| 1777490880 | 13.89° C | 67% | 1016.6 hPa | 0 mm | - | 137 W/m² | - |
| 1777490576 | 13.89° C | 66% | 1016.5 hPa | 0 mm | - | 134 W/m² | - |
| 1777490272 | 13.89° C | 65% | 1016.6 hPa | 0 mm | - | 135 W/m² | - |
* Rain latest hour (hover to see other rain measurements)
** Current wind speed in m/s (hover to see current wind gust speed)